Location: Potomac
(46.8816°N, 113.5795°W)
Time: 03:30:05
(UTC+00:00)

Oscar 19 - Pass Details

Date: 03 July 2022
Orbit: 773 x 790 km, 98.8° (Epoch: 14 August)

Event Time Altitude Azimuth Distance (km) Brightness Sun altitude
Rises 11:01:43 0° 16° (NNE) 3,263 15.1 -6.5°
Reaches altitude 10° 11:04:04 10° 19° (NNE) 2,330 14.3 -6.2°
Maximum altitude 11:09:10 67° 103° (ESE) 838 11.0 -5.6°
Drops below altitude 10° 11:14:15 10° 186° (S) 2,314 12.7 -5.0°
Sets 11:16:34 0° 189° (S) 3,238 13.4 -4.7°
